Vorticity
3 7 2 2 -3 4 -0 1 32 9 22 7 8 8 10 20 2 -3 28 46 21 23 29 24 15 12 16 16 52 29 14 5 0 32 7 5 6 7 7 8 11 30 0 18 18 -0 30
6 4 -2 3 -4 1 3 6 13 19 17 6 11 10 28 9 14 15 27 40 21 22 23 17 13 9 23 26 41 35 22 10 12 18 -14 18 2 6 9 5 12 2 13 -6 10 20 3
-1 -2 5 -6 -0 3 -0 3 10 20 20 9 10 15 11 6 18 22 26 35 24 12 12 17 13 19 21 5 39 27 31 8 4 20 7 16 2 6 9 7 12 17 10 4 21 38 3
1 -2 4 -4 -1 4 -2 1 15 21 20 12 9 6 -1 10 -11 -0 24 21 35 26 18 6 6 24 32 19 24 28 39 11 6 16 35 24 10 9 8 8 8 7 2 16 -16 -12 2
-0 5 6 -0 1 3 1 2 5 15 38 10 8 1 6 20 4 -7 1 30 21 32 26 29 10 31 24 42 2 11 30 10 14 -22 -2 15 14 4 4 7 6 5 17 16 6 11 -3
2 3 -1 0 3 -0 1 -1 -2 13 18 21 10 -1 5 16 7 11 3 12 26 22 24 41 27 33 8 20 -9 41 26 11 14 -29 9 11 25 4 6 6 -1 20 12 8 7 26 8
3 1 6 1 2 -1 -2 0 3 17 52 29 13 -1 4 2 10 9 6 2 16 26 24 37 24 4 -4 11 13 42 18 14 3 3 -8 2 23 6 6 6 5 10 17 16 14 6 10
-1 2 7 -2 9 -3 2 1 -1 18 25 26 20 3 -4 6 9 -12 9 3 13 25 17 35 15 -16 15 6 16 46 15 13 4 8 20 9 12 9 8 7 9 5 12 10 9 14 13
3 -2 3 5 -2 2 3 -3 2 3 51 21 32 13 -1 6 -4 24 3 21 10 6 37 12 27 5 8 26 26 25 3 -3 11 14 10 -10 21 8 3 5 1 13 4 8 11 9 8
7 3 3 8 0 4 5 1 2 -1 -7 47 35 13 7 4 9 2 -2 8 6 11 13 34 15 23 26 9 15 29 6 45 -5 9 13 12 6 6 1 3 6 1 11 5 9 6 9
2 6 3 6 9 3 5 4 4 -1 -13 28 33 30 7 9 5 -7 3 -2 6 6 24 62 65 42 12 -5 -0 13 2 11 -9 -1 -14 8 3 -0 5 8 8 8 4 12 4 7 12
6 4 4 8 10 -1 1 1 2 2 1 -2 37 30 16 5 5 -5 6 5 -1 14 20 -8 -14 -48 18 -28 36 25 -2 28 14 24 -2 -1 10 18 24 7 6 7 8 8 13 9 5
4 -9 -3 9 10 3 4 -1 4 3 1 -1 27 37 32 7 5 -0 1 4 11 13 10 29 29 -3 6 -5 19 18 8 26 12 14 -1 5 17 9 12 9 6 7 7 4 4 7 10
-8 -8 10 -2 12 7 1 -7 2 11 4 -0 16 42 17 26 4 9 3 3 7 10 17 14 33 49 8 8 17 13 12 23 32 -2 4 3 7 7 7 8 6 5 7 2 0 -1 0
3 3 0 5 18 11 1 -7 6 6 1 3 -5 40 26 27 11 3 9 2 4 1 11 10 15 -23 16 21 21 3 -38 -10 17 6 5 5 7 4 5 7 3 3 2 4 4 4 7
9 2 -1 5 0 22 -0 1 -2 0 7 -1 1 35 25 28 24 10 7 11 2 2 6 13 15 15 3 -8 1 33 10 9 -3 3 8 14 11 11 6 6 5 4 5 11 8 9 8
6 3 1 1 3 34 -5 -0 5 3 1 2 2 20 43 26 29 10 9 8 9 -3 5 5 11 19 6 19 17 -4 16 3 7 4 4 1 3 4 3 4 13 17 11 7 -1 10 19
7 4 3 -1 -7 20 17 -5 -3 -2 6 1 3 24 33 2 36 18 4 11 9 14 -0 2 7 10 5 10 7 26 24 15 8 13 7 2 3 1 14 10 4 8 14 4 -1 27 10
-4 7 4 8 -2 27 19 4 1 -3 3 1 6 14 31 40 20 26 7 9 7 6 11 8 -1 7 5 7 4 7 8 5 4 11 14 8 15 14 9 1 0 7 9 6 1 12 10
-4 -3 2 10 -3 26 15 9 -0 -4 -3 -2 -3 -9 27 33 47 24 19 6 8 4 12 10 8 11 5 5 6 6 5 -1 -1 -1 2 13 12 5 8 4 7 7 15 18 13 7 12
1 1 -1 -1 -5 24 12 22 -11 -7 5 5 -1 3 5 19 52 27 25 9 8 11 11 13 10 8 10 8 3 8 11 11 10 13 14 7 5 10 11 9 12 12 12 -1 1 5 4
2 1 5 7 9 7 24 12 7 -4 -10 6 2 -1 3 27 53 27 21 18 8 8 8 12 12 11 7 11 12 9 9 4 4 7 9 12 14 13 11 9 6 5 6 5 7 4 3
-1 -0 -1 -2 12 7 17 12 12 -1 -9 -15 -10 -11 2 23 26 23 22 23 4 7 9 9 11 13 9 6 6 8 12 14 10 5 5 6 8 8 11 12 21 23 19 14 9 9 11
0 4 -1 7 -3 4 14 16 18 5 8 11 1 5 -1 20 37 29 20 21 14 6 6 9 8 10 12 10 7 8 9 8 11 9 9 9 9 9 10 10 8 8 12 11 13 10 12
0 -1 -2 2 -1 1 16 18 13 1 4 3 1 4 12 22 27 37 13 19 21 11 4 6 9 11 12 13 14 15 14 12 9 11 10 7 8 7 10 8 6 11 10 11 11 10 12
0 -5 -1 -3 2 4 11 14 14 4 2 20 15 8 14 20 23 47 14 9 23 30 8 4 3 7 10 10 10 11 13 17 17 14 10 13 16 10 5 10 10 9 13 12 6 13 14
-6 5 1 4 -4 23 20 13 11 4 2 7 9 -3 20 28 36 25 34 15 12 23 26 11 3 1 1 2 2 1 -0 1 5 12 11 11 14 14 14 14 14 9 8 5 10 12 7
9 3 0 6 2 22 13 12 6 2 -1 3 -8 10 24 18 24 44 34 21 10 19 22 19 15 3 1 1 0 2 1 2 1 6 3 6 10 12 9 5 5 10 11 11 10 8 8
3 -10 9 4 20 16 9 7 4 9 -1 9 14 5 26 12 22 47 23 22 30 8 21 25 -1 20 3 3 1 1 3 4 3 12 9 12 8 5 7 9 10 12 10 7 9 10 6
Height
5801 5790 5780 5769 5757 5743 5728 5713 5698 5687 5675 5664 5654 5643 5628 5614 5599 5581 5564 5554 5550 5546 5543 5543 5545 5546 5548 5552 5559 5575 5592 5608 5623 5637 5649 5662 5674 5684 5693 5702 5710 5720 5730 5736 5741 5753 5760
5798 5788 5777 5767 5756 5742 5727 5712 5698 5686 5674 5661 5653 5641 5627 5614 5599 5581 5563 5552 5548 5544 5541 5541 5542 5543 5545 5549 5555 5566 5585 5604 5621 5635 5648 5659 5673 5682 5689 5698 5706 5715 5723 5726 5735 5746 5752
5795 5786 5776 5765 5754 5741 5726 5712 5697 5684 5672 5661 5652 5642 5630 5616 5601 5584 5567 5554 5548 5546 5544 5542 5541 5542 5543 5549 5555 5565 5581 5600 5618 5634 5647 5657 5666 5675 5685 5693 5700 5707 5715 5720 5729 5737 5747
5792 5784 5774 5765 5754 5741 5728 5713 5698 5684 5672 5661 5654 5643 5632 5619 5606 5590 5574 5560 5550 5545 5543 5541 5541 5540 5542 5548 5556 5567 5578 5597 5617 5633 5644 5652 5660 5670 5679 5687 5696 5702 5707 5715 5725 5730 5737
5790 5781 5772 5763 5753 5741 5728 5714 5699 5685 5673 5662 5655 5645 5634 5622 5610 5597 5582 5567 5555 5547 5543 5540 5540 5540 5546 5553 5561 5567 5577 5594 5614 5629 5641 5646 5655 5666 5676 5683 5691 5699 5708 5717 5724 5728 5735
5788 5779 5771 5761 5752 5741 5729 5716 5701 5687 5674 5662 5654 5647 5637 5626 5615 5603 5590 5575 5562 5553 5547 5541 5541 5545 5549 5556 5563 5567 5579 5596 5612 5627 5637 5643 5651 5664 5674 5681 5694 5702 5710 5716 5722 5727 5733
5786 5778 5769 5760 5752 5740 5729 5716 5700 5687 5676 5667 5657 5648 5641 5631 5620 5609 5597 5586 5575 5564 5554 5550 5551 5553 5558 5561 5566 5572 5585 5599 5613 5625 5637 5644 5654 5666 5676 5683 5689 5699 5707 5713 5720 5725 5728
5783 5775 5767 5759 5749 5740 5729 5716 5703 5689 5678 5667 5657 5651 5644 5636 5626 5616 5605 5593 5582 5573 5567 5563 5564 5565 5566 5570 5574 5581 5594 5606 5617 5628 5637 5647 5656 5665 5674 5681 5686 5693 5701 5707 5712 5717 5723
5779 5773 5765 5757 5748 5739 5729 5718 5705 5691 5679 5668 5659 5653 5647 5640 5631 5622 5614 5604 5595 5586 5580 5576 5574 5573 5575 5576 5582 5591 5602 5611 5624 5632 5641 5651 5659 5663 5672 5679 5686 5692 5698 5703 5710 5715 5718
5776 5770 5763 5755 5748 5738 5727 5718 5705 5690 5679 5669 5659 5652 5648 5642 5638 5629 5622 5614 5606 5599 5592 5587 5586 5584 5583 5586 5595 5602 5607 5613 5625 5635 5641 5649 5658 5663 5670 5677 5685 5691 5695 5699 5705 5710 5716
5773 5768 5761 5753 5745 5737 5729 5718 5706 5692 5681 5672 5660 5653 5648 5643 5641 5635 5629 5621 5616 5611 5606 5600 5598 5594 5593 5599 5608 5612 5617 5622 5628 5637 5645 5652 5657 5664 5670 5677 5683 5688 5693 5697 5701 5706 5710
5770 5765 5758 5751 5743 5735 5728 5719 5706 5692 5680 5671 5659 5653 5647 5645 5642 5639 5634 5627 5623 5621 5615 5616 5611 5608 5607 5605 5610 5614 5620 5625 5631 5638 5647 5653 5657 5662 5668 5674 5681 5686 5691 5694 5698 5701 5705
5766 5762 5756 5749 5741 5734 5726 5718 5707 5694 5681 5671 5661 5652 5646 5643 5642 5639 5637 5633 5629 5624 5621 5619 5617 5614 5614 5614 5615 5616 5621 5627 5635 5641 5647 5652 5659 5664 5669 5674 5679 5683 5687 5690 5694 5696 5700
5762 5758 5753 5746 5739 5732 5725 5718 5707 5695 5682 5671 5660 5651 5646 5642 5640 5638 5637 5637 5632 5629 5625 5622 5620 5620 5621 5622 5622 5622 5626 5632 5639 5645 5650 5655 5660 5664 5669 5673 5678 5682 5685 5688 5690 5692 5697
5758 5755 5750 5743 5737 5730 5723 5715 5706 5695 5683 5670 5659 5653 5644 5641 5639 5638 5638 5637 5634 5632 5630 5626 5626 5628 5628 5628 5630 5630 5633 5638 5643 5647 5652 5656 5661 5664 5668 5671 5676 5679 5681 5684 5685 5687 5690
5754 5751 5746 5740 5734 5727 5720 5714 5706 5694 5684 5671 5660 5653 5645 5639 5636 5635 5636 5636 5636 5635 5633 5631 5629 5632 5633 5635 5635 5636 5639 5643 5646 5649 5652 5656 5660 5664 5667 5670 5673 5676 5679 5679 5680 5682 5684
5748 5746 5742 5736 5731 5724 5717 5712 5703 5694 5682 5671 5659 5651 5645 5637 5634 5633 5634 5635 5636 5635 5635 5635 5632 5632 5634 5635 5637 5638 5640 5643 5645 5649 5652 5655 5659 5662 5663 5666 5670 5672 5672 5675 5677 5677 5678
5743 5740 5737 5732 5726 5720 5714 5708 5700 5691 5681 5670 5658 5649 5641 5634 5631 5628 5630 5630 5633 5634 5634 5634 5634 5632 5632 5633 5634 5636 5639 5642 5645 5647 5649 5652 5655 5657 5660 5662 5663 5664 5666 5667 5669 5671 5673
5736 5734 5732 5727 5721 5715 5710 5704 5697 5689 5680 5670 5658 5646 5636 5631 5628 5623 5624 5626 5628 5631 5631 5632 5633 5633 5632 5633 5635 5634 5636 5639 5641 5643 5645 5647 5649 5652 5656 5659 5660 5660 5663 5665 5666 5667 5667
5729 5728 5726 5721 5716 5711 5706 5700 5694 5686 5678 5668 5656 5644 5633 5627 5622 5619 5620 5621 5623 5625 5627 5628 5630 5632 5631 5632 5633 5634 5635 5636 5638 5639 5640 5642 5644 5648 5651 5652 5654 5655 5656 5657 5658 5659 5663
5722 5721 5720 5715 5711 5708 5702 5696 5689 5683 5675 5666 5654 5641 5628 5623 5617 5614 5614 5616 5617 5620 5622 5623 5625 5627 5629 5630 5631 5632 5634 5634 5636 5638 5639 5641 5642 5644 5646 5648 5650 5652 5652 5653 5654 5658 5655
5715 5713 5713 5709 5705 5703 5697 5691 5685 5679 5672 5662 5652 5638 5626 5616 5611 5608 5606 5608 5611 5614 5616 5618 5619 5621 5624 5625 5627 5629 5630 5631 5633 5635 5636 5638 5640 5641 5642 5644 5645 5646 5647 5648 5650 5650 5650
5707 5707 5705 5703 5700 5698 5692 5686 5681 5675 5668 5659 5647 5633 5620 5611 5606 5603 5601 5602 5605 5606 5609 5611 5614 5616 5618 5621 5622 5624 5626 5627 5629 5631 5632 5634 5635 5636 5638 5639 5639 5641 5643 5642 5644 5645 5646
5699 5699 5697 5695 5694 5691 5686 5681 5676 5671 5664 5656 5645 5631 5616 5606 5600 5598 5595 5595 5597 5599 5602 5605 5608 5610 5613 5615 5617 5619 5620 5622 5624 5626 5628 5629 5630 5631 5633 5633 5635 5637 5637 5636 5637 5639 5638
5691 5690 5688 5687 5687 5685 5680 5675 5672 5666 5659 5652 5642 5628 5612 5600 5593 5592 5589 5588 5588 5592 5595 5599 5602 5605 5606 5609 5612 5614 5616 5618 5620 5622 5623 5625 5626 5628 5628 5629 5632 5632 5632 5633 5633 5635 5632
5682 5681 5681 5680 5679 5677 5675 5671 5666 5662 5655 5647 5638 5625 5607 5595 5589 5583 5582 5582 5582 5585 5589 5593 5597 5600 5603 5605 5608 5610 5612 5614 5616 5618 5620 5621 5622 5624 5624 5625 5626 5627 5627 5628 5629 5629 5629
5672 5673 5674 5674 5673 5671 5668 5664 5660 5656 5650 5643 5634 5622 5605 5590 5583 5576 5575 5576 5576 5579 5582 5587 5591 5595 5598 5601 5604 5606 5609 5611 5613 5615 5616 5617 5618 5620 5620 5621 5623 5622 5623 5623 5625 5628 5624
5663 5664 5666 5666 5665 5664 5660 5657 5653 5650 5644 5638 5629 5618 5601 5585 5578 5573 5570 5571 5574 5574 5576 5581 5584 5588 5592 5595 5599 5602 5604 5606 5609 5610 5612 5613 5615 5616 5617 5618 5619 5618 5619 5620 5621 5620 5621
5654 5656 5658 5658 5658 5655 5652 5650 5646 5642 5638 5632 5623 5612 5597 5583 5576 5570 5568 5568 5568 5568 5570 5572 5576 5580 5584 5588 5593 5596 5599 5601 5602 5605 5607 5609 5611 5612 5614 5614 5614 5614 5614 5615 5616 5617 5617